sat.trackr.live / text

‹ back to catalog

STARLINK-11585 [DTC]

NORAD 63309 · 2025-057C

PAYLOAD ACTIVE UNKNOWN

§ Identity

Operator
Country
US
Launch date
2025-03-18
Launch site
AFETR
Launch vehicle
Mass (kg)
RCS (m²)

Purposes: comms

External: N2YO · Heavens-Above · Gunter

§ Orbital elements

Epoch: 2026-05-25T01:53:24.465696Z

Period
91.67 min
Inclination
43.0003°
Eccentricity
0.0001920
Mean motion
15.70919564 rev/d
Perigee alt
355.0 km
Apogee alt
357.6 km
Semi-major
6,734.4 km
B*
1.9952e-3
RAAN
163.9030°
Arg perigee
260.4913°
Mean anomaly
99.5737°
Rev number
6,922

§ Raw data

STARLINK-11585 [DTC]1 63309U 25057C   26145.07875539  .00264769  00000+0  19952-2 0  99932 63309  43.0003 163.9030 0001920 260.4913  99.5737 15.70919564 69228

JSON: /api/v1/satellites/63309 · /tle

For live sub-satellite position, see the globe view (requires WebGL).

§ Visibility from observer

Set your observer location to see the next 7 days of passes ≥ 10°. The values pass through the URL so the page stays shareable.

No JS? Fill the form by hand. The geolocation button needs JavaScript.